Time,TemperatureF,DewpointF,PressureIn,WindDirection,WindDirectionDegrees,WindSpeedMPH,WindSpeedGustMPH,Humidity,HourlyPrecipIn,Conditions,Clouds,dailyrainin,SoftwareType,DateUTC
2013-03-24 00:00:00,51.2,50.4,29.76,NNE,31,2.0,7.0,97,0.56,,SKC,1.25,VWS V13.00,2013-03-24 05:00:00,
2013-03-24 00:05:00,51.1,50.3,29.75,NE,43,2.0,6.0,97,0.35,,SKC,0.02,VWS V13.00,2013-03-24 05:05:00,
2013-03-24 00:10:00,51.1,50.3,29.76,ENE,58,1.0,6.0,97,0.39,,SKC,0.06,VWS V13.00,2013-03-24 05:10:00,
2013-03-24 00:15:00,51.1,50.3,29.75,East,85,4.0,6.0,97,0.42,,SKC,0.09,VWS V13.00,2013-03-24 05:15:00,
2013-03-24 00:20:00,51.2,50.7,29.74,East,82,6.0,10.0,98,0.46,,SKC,0.13,VWS V13.00,2013-03-24 05:20:00,
2013-03-24 00:25:00,51.3,50.8,29.72,East,84,10.0,14.0,98,0.50,,SKC,0.17,VWS V13.00,2013-03-24 05:25:00,
2013-03-24 00:30:00,51.4,50.9,29.72,East,87,10.0,14.0,98,0.54,,SKC,0.20,VWS V13.00,2013-03-24 05:30:00,
2013-03-24 00:35:00,51.5,51.0,29.72,East,90,8.0,12.0,98,0.43,,SKC,0.24,VWS V13.00,2013-03-24 05:35:00,
2013-03-24 00:40:00,51.6,51.1,29.70,ESE,114,11.0,16.0,98,0.47,,SKC,0.28,VWS V13.00,2013-03-24 05:40:00,
2013-03-24 00:45:00,51.7,51.2,29.69,East,100,9.0,16.0,98,0.50,,SKC,0.30,VWS V13.00,2013-03-24 05:45:00,
2013-03-24 00:50:00,51.7,50.9,29.68,SE,126,8.0,19.0,97,0.52,,SKC,0.33,VWS V13.00,2013-03-24 05:50:00,
2013-03-24 00:55:00,51.8,51.0,29.66,SSE,149,14.0,20.0,97,0.56,,SKC,0.37,VWS V13.00,2013-03-24 05:55:00,
2013-03-24 01:00:00,51.8,51.0,29.64,East,95,7.0,21.0,97,0.60,,SKC,0.41,VWS V13.00,2013-03-24 06:00:00,
2013-03-24 01:05:00,51.9,51.1,29.61,ESE,105,14.0,20.0,97,0.43,,SKC,0.43,VWS V13.00,2013-03-24 06:05:00,
2013-03-24 01:10:00,51.9,51.1,29.58,ENE,78,13.0,26.0,97,0.46,,SKC,0.47,VWS V13.00,2013-03-24 06:10:00,
2013-03-24 01:15:00,51.9,51.1,29.60,SE,127,11.0,27.0,97,0.49,,SKC,0.49,VWS V13.00,2013-03-24 06:15:00,
2013-03-24 01:20:00,51.9,50.8,29.62,East,98,8.0,27.0,96,0.49,,SKC,0.49,VWS V13.00,2013-03-24 06:20:00,
2013-03-24 01:25:00,52.1,51.0,29.62,ENE,65,12.0,27.0,96,0.49,,SKC,0.49,VWS V13.00,2013-03-24 06:25:00,
2013-03-24 01:30:00,52.1,51.0,29.60,ESE,104,10.0,27.0,96,0.49,,SKC,0.49,VWS V13.00,2013-03-24 06:30:00,
2013-03-24 01:35:00,51.9,50.8,29.61,East,96,15.0,18.0,96,0.27,,SKC,0.50,VWS V13.00,2013-03-24 06:35:00,
2013-03-24 01:40:00,51.9,50.8,29.61,ESE,106,8.0,22.0,96,0.28,,SKC,0.50,VWS V13.00,2013-03-24 06:40:00,
2013-03-24 01:45:00,51.9,50.5,29.61,ENE,72,6.0,22.0,95,0.29,,SKC,0.51,VWS V13.00,2013-03-24 06:45:00,
2013-03-24 01:50:00,51.8,50.4,29.62,East,81,6.0,22.0,95,0.29,,SKC,0.51,VWS V13.00,2013-03-24 06:50:00,
2013-03-24 01:55:00,51.9,50.5,29.61,East,84,9.0,22.0,95,0.29,,SKC,0.51,VWS V13.00,2013-03-24 06:55:00,
2013-03-24 02:00:00,51.9,50.5,29.62,SE,138,9.0,22.0,95,0.29,,SKC,0.51,VWS V13.00,2013-03-24 07:00:00,
2013-03-24 02:05:00,52.0,50.6,29.63,East,98,9.0,10.0,95,0.10,,SKC,0.52,VWS V13.00,2013-03-24 07:05:00,
2013-03-24 02:10:00,51.9,50.5,29.62,East,98,6.0,12.0,95,0.10,,SKC,0.52,VWS V13.00,2013-03-24 07:10:00,
2013-03-24 02:15:00,51.9,50.5,29.60,ESE,106,12.0,14.0,95,0.10,,SKC,0.52,VWS V13.00,2013-03-24 07:15:00,
2013-03-24 02:20:00,51.9,50.5,29.61,ESE,104,9.0,18.0,95,0.11,,SKC,0.53,VWS V13.00,2013-03-24 07:20:00,
2013-03-24 02:24:00,51.9,50.5,29.62,ESE,110,6.0,18.0,95,0.11,,SKC,0.53,VWS V13.00,2013-03-24 07:24:00,
2013-03-24 02:29:00,51.9,50.5,29.61,East,79,10.0,18.0,95,0.12,,SKC,0.54,VWS V13.00,2013-03-24 07:29:00,
2013-03-24 02:34:00,51.7,50.3,29.60,ENE,77,8.0,11.0,95,0.06,,SKC,0.55,VWS V13.00,2013-03-24 07:34:00,
2013-03-24 02:39:00,51.6,50.5,29.61,ESE,111,7.0,12.0,96,0.08,,SKC,0.57,VWS V13.00,2013-03-24 07:39:00,
2013-03-24 02:44:00,51.5,50.4,29.59,ESE,103,12.0,14.0,96,0.08,,SKC,0.58,VWS V13.00,2013-03-24 07:44:00,
2013-03-24 02:49:00,51.4,50.3,29.59,East,97,6.0,14.0,96,0.09,,SKC,0.58,VWS V13.00,2013-03-24 07:49:00,
2013-03-24 02:54:00,51.3,50.2,29.60,ESE,105,2.0,14.0,96,0.10,,SKC,0.59,VWS V13.00,2013-03-24 07:54:00,
2013-03-24 02:59:00,51.2,50.1,29.61,ENE,67,3.0,14.0,96,0.11,,SKC,0.60,VWS V13.00,2013-03-24 07:59:00,
2013-03-24 03:04:00,51.2,50.1,29.63,ESE,117,0.0,3.0,96,0.09,,SKC,0.61,VWS V13.00,2013-03-24 08:04:00,
2013-03-24 03:09:00,51.1,50.0,29.61,East,79,2.0,4.0,96,0.11,,SKC,0.63,VWS V13.00,2013-03-24 08:09:00,
2013-03-24 03:14:00,51.0,49.9,29.61,ENE,70,1.0,6.0,96,0.14,,SKC,0.67,VWS V13.00,2013-03-24 08:14:00,
2013-03-24 03:19:00,50.9,49.8,29.61,NNE,33,2.0,6.0,96,0.16,,SKC,0.68,VWS V13.00,2013-03-24 08:19:00,
2013-03-24 03:24:00,50.8,49.7,29.64,WNW,302,4.0,8.0,96,0.18,,SKC,0.70,VWS V13.00,2013-03-24 08:24:00,
2013-03-24 03:29:00,50.8,50.0,29.67,WNW,297,8.0,9.0,97,0.20,,SKC,0.72,VWS V13.00,2013-03-24 08:29:00,
2013-03-24 03:34:00,50.8,50.0,29.67,NW,315,9.0,12.0,97,0.21,,SKC,0.76,VWS V13.00,2013-03-24 08:34:00,
2013-03-24 03:39:00,50.8,50.0,29.67,NW,304,5.0,12.0,97,0.25,,SKC,0.80,VWS V13.00,2013-03-24 08:39:00,
2013-03-24 03:44:00,50.8,50.0,29.66,NW,319,4.0,12.0,97,0.27,,SKC,0.82,VWS V13.00,2013-03-24 08:44:00,
2013-03-24 03:49:00,50.9,50.1,29.65,North,355,3.0,12.0,97,0.28,,SKC,0.83,VWS V13.00,2013-03-24 08:49:00,
2013-03-24 03:54:00,50.9,50.1,29.64,North,355,4.0,12.0,97,0.29,,SKC,0.84,VWS V13.00,2013-03-24 08:54:00,
2013-03-24 03:59:00,50.9,50.1,29.65,NNE,13,2.0,12.0,97,0.30,,SKC,0.85,VWS V13.00,2013-03-24 08:59:00,
2013-03-24 04:04:00,50.9,50.4,29.64,NE,40,1.0,2.0,98,0.24,,SKC,0.85,VWS V13.00,2013-03-24 09:04:00,
2013-03-24 04:09:00,50.9,50.4,29.65,North,5,1.0,4.0,98,0.25,,SKC,0.86,VWS V13.00,2013-03-24 09:09:00,
2013-03-24 04:14:00,50.9,50.1,29.63,ESE,102,1.0,4.0,97,0.25,,SKC,0.86,VWS V13.00,2013-03-24 09:14:00,
2013-03-24 04:19:00,50.9,50.1,29.63,SSE,154,2.0,5.0,97,0.25,,SKC,0.86,VWS V13.00,2013-03-24 09:19:00,
2013-03-24 04:24:00,50.8,50.3,29.61,ESE,109,4.0,5.0,98,0.25,,SKC,0.86,VWS V13.00,2013-03-24 09:24:00,
2013-03-24 04:29:00,50.8,50.3,29.60,East,85,4.0,6.0,98,0.25,,SKC,0.86,VWS V13.00,2013-03-24 09:29:00,
2013-03-24 04:34:00,50.8,50.3,29.58,ENE,60,5.0,7.0,98,0.12,,SKC,0.86,VWS V13.00,2013-03-24 09:34:00,
2013-03-24 04:39:00,50.6,50.1,29.59,ESE,104,4.0,7.0,98,0.12,,SKC,0.86,VWS V13.00,2013-03-24 09:39:00,
2013-03-24 04:44:00,50.5,50.0,29.59,ESE,114,4.0,7.0,98,0.12,,SKC,0.86,VWS V13.00,2013-03-24 09:44:00,
2013-03-24 04:49:00,50.5,50.0,29.58,East,88,7.0,7.0,98,0.12,,SKC,0.86,VWS V13.00,2013-03-24 09:49:00,
2013-03-24 04:54:00,50.4,49.9,29.58,East,88,4.0,7.0,98,0.12,,SKC,0.86,VWS V13.00,2013-03-24 09:54:00,
2013-03-24 04:59:00,50.3,49.8,29.58,ESE,107,7.0,8.0,98,0.12,,SKC,0.86,VWS V13.00,2013-03-24 09:59:00,
2013-03-24 05:04:00,50.2,49.7,29.59,ESE,102,2.0,5.0,98,0.01,,SKC,0.86,VWS V13.00,2013-03-24 10:04:00,
2013-03-24 05:09:00,50.2,49.7,29.59,East,101,2.0,6.0,98,0.01,,SKC,0.86,VWS V13.00,2013-03-24 10:09:00,
2013-03-24 05:14:00,50.1,49.6,29.60,ESE,109,4.0,7.0,98,0.01,,SKC,0.86,VWS V13.00,2013-03-24 10:14:00,
2013-03-24 05:19:00,50.2,49.7,29.59,SE,131,2.0,7.0,98,0.01,,SKC,0.86,VWS V13.00,2013-03-24 10:19:00,
2013-03-24 05:24:00,50.0,49.2,29.58,East,89,5.0,7.0,97,0.01,,SKC,0.86,VWS V13.00,2013-03-24 10:24:00,
2013-03-24 05:29:00,49.9,49.1,29.57,East,84,5.0,8.0,97,0.01,,SKC,0.86,VWS V13.00,2013-03-24 10:29:00,
2013-03-24 05:34:00,49.7,48.9,29.57,East,91,5.0,7.0,97,0.00,,SKC,0.86,VWS V13.00,2013-03-24 10:34:00,
2013-03-24 05:39:00,49.7,48.9,29.58,East,95,2.0,7.0,97,0.00,,SKC,0.86,VWS V13.00,2013-03-24 10:39:00,
2013-03-24 05:44:00,49.6,48.8,29.58,SE,144,4.0,7.0,97,0.00,,SKC,0.86,VWS V13.00,2013-03-24 10:44:00,
2013-03-24 05:49:00,49.6,48.8,29.58,SE,132,1.0,7.0,97,0.00,,SKC,0.86,VWS V13.00,2013-03-24 10:49:00,
2013-03-24 05:54:00,49.5,48.7,29.59,ESE,104,2.0,7.0,97,0.00,,SKC,0.86,VWS V13.00,2013-03-24 10:54:00,
2013-03-24 05:59:00,49.5,48.7,29.59,ESE,117,4.0,7.0,97,0.00,,SKC,0.86,VWS V13.00,2013-03-24 10:59:00,
2013-03-24 06:04:00,49.3,48.5,29.59,ESE,107,3.0,6.0,97,0.00,,SKC,0.86,VWS V13.00,2013-03-24 11:04:00,
2013-03-24 06:09:00,49.3,48.5,29.58,ESE,114,4.0,7.0,97,0.00,,SKC,0.86,VWS V13.00,2013-03-24 11:09:00,
2013-03-24 06:14:00,49.1,48.3,29.58,ESE,103,6.0,7.0,97,0.00,,SKC,0.86,VWS V13.00,2013-03-24 11:14:00,
2013-03-24 06:19:00,49.2,48.7,29.58,East,93,6.0,9.0,98,0.00,,SKC,0.86,VWS V13.00,2013-03-24 11:19:00,
2013-03-24 06:24:00,49.1,48.6,29.58,East,88,6.0,10.0,98,0.01,,SKC,0.87,VWS V13.00,2013-03-24 11:24:00,
2013-03-24 06:29:00,49.2,48.7,29.58,ESE,105,5.0,10.0,98,0.01,,SKC,0.87,VWS V13.00,2013-03-24 11:29:00,
2013-03-24 06:34:00,49.2,48.4,29.58,ESE,109,8.0,11.0,97,0.01,,SKC,0.87,VWS V13.00,2013-03-24 11:34:00,
2013-03-24 06:39:00,49.2,48.4,29.58,ESE,117,7.0,11.0,97,0.01,,SKC,0.87,VWS V13.00,2013-03-24 11:39:00,
2013-03-24 06:44:00,49.2,48.4,29.58,ESE,110,6.0,11.0,97,0.01,,SKC,0.87,VWS V13.00,2013-03-24 11:44:00,
2013-03-24 06:49:00,49.3,48.2,29.58,SE,135,6.0,11.0,96,0.01,,SKC,0.87,VWS V13.00,2013-03-24 11:49:00,
2013-03-24 06:54:00,49.3,48.2,29.59,ESE,122,5.0,11.0,96,0.01,,SKC,0.87,VWS V13.00,2013-03-24 11:54:00,
2013-03-24 06:59:00,49.4,48.3,29.58,SE,128,3.0,11.0,96,0.01,,SKC,0.87,VWS V13.00,2013-03-24 11:59:00,
2013-03-24 07:04:00,49.5,48.4,29.58,ESE,111,7.0,7.0,96,0.01,,SKC,0.87,VWS V13.00,2013-03-24 12:04:00,
2013-03-24 07:09:00,49.5,48.4,29.58,ESE,112,5.0,7.0,96,0.01,,SKC,0.87,VWS V13.00,2013-03-24 12:09:00,
2013-03-24 07:14:00,49.5,48.4,29.58,ESE,122,5.0,10.0,96,0.01,,SKC,0.87,VWS V13.00,2013-03-24 12:14:00,
2013-03-24 07:19:00,49.7,48.6,29.57,ESE,107,2.0,10.0,96,0.01,,SKC,0.87,VWS V13.00,2013-03-24 12:19:00,
2013-03-24 07:24:00,49.9,48.5,29.57,SE,133,4.0,10.0,95,0.01,,SKC,0.87,VWS V13.00,2013-03-24 12:24:00,
2013-03-24 07:29:00,50.2,48.8,29.57,ESE,113,5.0,10.0,95,0.01,,SKC,0.87,VWS V13.00,2013-03-24 12:29:00,
2013-03-24 07:34:00,50.5,49.1,29.57,East,101,6.0,10.0,95,0.00,,SKC,0.87,VWS V13.00,2013-03-24 12:34:00,
2013-03-24 07:39:00,50.8,49.4,29.57,SSE,160,3.0,12.0,95,0.00,,SKC,0.87,VWS V13.00,2013-03-24 12:39:00,
2013-03-24 07:44:00,51.0,49.3,29.57,East,98,6.0,12.0,94,0.00,,SKC,0.87,VWS V13.00,2013-03-24 12:44:00,
2013-03-24 07:49:00,51.2,49.2,29.58,SSE,150,7.0,12.0,93,0.00,,SKC,0.87,VWS V13.00,2013-03-24 12:49:00,
2013-03-24 07:54:00,51.4,49.5,29.58,ESE,114,6.0,12.0,93,0.00,,SKC,0.87,VWS V13.00,2013-03-24 12:54:00,
2013-03-24 07:59:00,51.7,49.8,29.58,East,101,2.0,12.0,93,0.00,,SKC,0.87,VWS V13.00,2013-03-24 12:59:00,
2013-03-24 08:03:00,51.8,49.5,29.59,SSE,157,0.0,4.0,92,0.00,,SKC,0.87,VWS V13.00,2013-03-24 13:03:00,
2013-03-24 08:08:00,51.9,49.7,29.59,SSE,151,2.0,9.0,92,0.00,,SKC,0.87,VWS V13.00,2013-03-24 13:08:00,
2013-03-24 08:14:00,51.9,49.4,29.59,SE,142,6.0,9.0,91,0.00,,SKC,0.87,VWS V13.00,2013-03-24 13:14:00,
2013-03-24 08:18:00,51.7,49.2,29.59,ESE,115,6.0,12.0,91,0.00,,SKC,0.87,VWS V13.00,2013-03-24 13:18:00,
2013-03-24 08:23:00,51.7,49.5,29.59,South,184,5.0,12.0,92,0.00,,SKC,0.87,VWS V13.00,2013-03-24 13:23:00,
2013-03-24 08:28:00,51.8,49.3,29.59,SSE,154,1.0,12.0,91,0.00,,SKC,0.87,VWS V13.00,2013-03-24 13:28:00,
2013-03-24 08:33:00,51.8,49.3,29.59,ESE,112,7.0,9.0,91,0.00,,SKC,0.87,VWS V13.00,2013-03-24 13:33:00,
2013-03-24 08:38:00,51.7,49.5,29.60,South,177,4.0,9.0,92,0.00,,SKC,0.87,VWS V13.00,2013-03-24 13:38:00,
2013-03-24 08:43:00,51.7,49.5,29.61,SSE,167,2.0,9.0,92,0.00,,SKC,0.87,VWS V13.00,2013-03-24 13:43:00,
2013-03-24 08:48:00,51.8,49.5,29.62,SW,228,0.0,9.0,92,0.00,,SKC,0.87,VWS V13.00,2013-03-24 13:48:00,
2013-03-24 08:53:00,51.7,49.5,29.62,South,175,2.0,9.0,92,0.00,,SKC,0.87,VWS V13.00,2013-03-24 13:53:00,
2013-03-24 08:58:00,51.8,49.5,29.62,SSE,166,5.0,9.0,92,0.00,,SKC,0.87,VWS V13.00,2013-03-24 13:58:00,
2013-03-24 09:03:00,52.0,50.0,29.61,SE,144,1.0,2.0,93,0.00,,SKC,0.87,VWS V13.00,2013-03-24 14:03:00,
2013-03-24 09:08:00,52.3,50.3,29.61,SE,144,6.0,6.0,93,0.00,,SKC,0.87,VWS V13.00,2013-03-24 14:08:00,
2013-03-24 09:13:00,53.2,51.2,29.61,SE,125,2.0,6.0,93,0.00,,SKC,0.87,VWS V13.00,2013-03-24 14:13:00,
2013-03-24 09:18:00,53.6,50.7,29.61,SW,216,6.0,6.0,90,0.00,,SKC,0.87,VWS V13.00,2013-03-24 14:18:00,
2013-03-24 09:23:00,54.1,50.9,29.60,SE,134,4.0,9.0,89,0.00,,SKC,0.87,VWS V13.00,2013-03-24 14:23:00,
2013-03-24 09:28:00,54.0,50.5,29.58,SE,133,6.0,10.0,88,0.00,,SKC,0.87,VWS V13.00,2013-03-24 14:28:00,
2013-03-24 09:33:00,54.2,50.7,29.58,SSE,159,8.0,10.0,88,0.00,,SKC,0.87,VWS V13.00,2013-03-24 14:33:00,
2013-03-24 09:38:00,54.4,50.9,29.57,ESE,111,7.0,10.0,88,0.00,,SKC,0.87,VWS V13.00,2013-03-24 14:38:00,
2013-03-24 09:43:00,54.8,51.3,29.57,SSE,150,7.0,11.0,88,0.00,,SKC,0.87,VWS V13.00,2013-03-24 14:43:00,
2013-03-24 09:48:00,55.3,51.8,29.58,SSE,167,7.0,11.0,88,0.00,,SKC,0.87,VWS V13.00,2013-03-24 14:48:00,
2013-03-24 09:53:00,55.2,51.4,29.58,SSE,155,2.0,11.0,87,0.00,,SKC,0.87,VWS V13.00,2013-03-24 14:53:00,
2013-03-24 09:58:00,55.2,51.4,29.59,SE,140,6.0,11.0,87,0.00,,SKC,0.87,VWS V13.00,2013-03-24 14:58:00,
2013-03-24 10:03:00,55.1,51.3,29.58,SSE,160,10.0,10.0,87,0.00,,SKC,0.87,VWS V13.00,2013-03-24 15:03:00,
2013-03-24 10:08:00,55.2,51.4,29.58,SE,145,7.0,10.0,87,0.00,,SKC,0.87,VWS V13.00,2013-03-24 15:08:00,
2013-03-24 10:13:00,55.3,52.1,29.57,SE,143,1.0,10.0,89,0.00,,SKC,0.87,VWS V13.00,2013-03-24 15:13:00,
2013-03-24 10:18:00,55.6,51.5,29.57,SSE,162,6.0,12.0,86,0.00,,SKC,0.87,VWS V13.00,2013-03-24 15:18:00,
2013-03-24 10:23:00,55.8,51.7,29.58,SSE,147,1.0,12.0,86,0.00,,SKC,0.87,VWS V13.00,2013-03-24 15:23:00,
2013-03-24 10:28:00,55.9,51.8,29.57,East,101,5.0,12.0,86,0.00,,SKC,0.87,VWS V13.00,2013-03-24 15:28:00,
2013-03-24 10:33:00,56.2,52.4,29.57,SE,128,5.0,10.0,87,0.00,,SKC,0.87,VWS V13.00,2013-03-24 15:33:00,
2013-03-24 10:38:00,56.7,52.6,29.56,East,97,4.0,10.0,86,0.00,,SKC,0.87,VWS V13.00,2013-03-24 15:38:00,
2013-03-24 10:43:00,57.4,52.9,29.56,SE,139,6.0,10.0,85,0.00,,SKC,0.87,VWS V13.00,2013-03-24 15:43:00,
2013-03-24 10:48:00,58.0,52.9,29.56,East,94,6.0,11.0,83,0.00,,SKC,0.87,VWS V13.00,2013-03-24 15:48:00,
2013-03-24 10:53:00,57.9,52.8,29.56,SSW,192,6.0,11.0,83,0.00,,SKC,0.87,VWS V13.00,2013-03-24 15:53:00,
2013-03-24 10:58:00,57.8,53.0,29.56,South,169,4.0,11.0,84,0.00,,SKC,0.87,VWS V13.00,2013-03-24 15:58:00,
2013-03-24 11:03:00,57.8,52.3,29.56,SSE,147,6.0,8.0,82,0.00,,SKC,0.87,VWS V13.00,2013-03-24 16:03:00,
2013-03-24 11:08:00,57.4,51.6,29.56,South,182,5.0,13.0,81,0.00,,SKC,0.87,VWS V13.00,2013-03-24 16:08:00,
2013-03-24 11:13:00,57.1,51.7,29.56,SE,146,8.0,13.0,82,0.00,,SKC,0.87,VWS V13.00,2013-03-24 16:13:00,
2013-03-24 11:18:00,57.1,52.3,29.56,South,186,7.0,13.0,84,0.00,,SKC,0.87,VWS V13.00,2013-03-24 16:18:00,
2013-03-24 11:23:00,57.3,52.2,29.57,SSE,165,9.0,13.0,83,0.00,,SKC,0.87,VWS V13.00,2013-03-24 16:23:00,
2013-03-24 11:28:00,57.0,51.9,29.57,South,178,7.0,13.0,83,0.00,,SKC,0.87,VWS V13.00,2013-03-24 16:28:00,
2013-03-24 11:33:00,56.9,51.8,29.57,South,180,5.0,8.0,83,0.00,,SKC,0.87,VWS V13.00,2013-03-24 16:33:00,
2013-03-24 11:38:00,56.9,52.1,29.57,SSE,165,10.0,10.0,84,0.00,,SKC,0.87,VWS V13.00,2013-03-24 16:38:00,
2013-03-24 11:43:00,57.1,52.3,29.57,South,185,6.0,10.0,84,0.00,,SKC,0.87,VWS V13.00,2013-03-24 16:43:00,
2013-03-24 11:48:00,57.4,52.0,29.57,South,179,6.0,13.0,82,0.00,,SKC,0.87,VWS V13.00,2013-03-24 16:48:00,
2013-03-24 11:53:00,57.6,52.2,29.57,ESE,116,5.0,13.0,82,0.00,,SKC,0.87,VWS V13.00,2013-03-24 16:53:00,
2013-03-24 11:58:00,58.2,52.7,29.56,South,174,5.0,13.0,82,0.00,,SKC,0.87,VWS V13.00,2013-03-24 16:58:00,
2013-03-24 12:03:00,58.5,53.0,29.56,South,182,5.0,10.0,82,0.00,,SKC,0.87,VWS V13.00,2013-03-24 17:03:00,
2013-03-24 12:08:00,58.6,53.1,29.55,SSE,165,7.0,14.0,82,0.00,,SKC,0.87,VWS V13.00,2013-03-24 17:08:00,
2013-03-24 12:13:00,58.2,52.4,29.55,South,184,9.0,15.0,81,0.00,,SKC,0.87,VWS V13.00,2013-03-24 17:13:00,
2013-03-24 12:18:00,58.4,52.9,29.55,South,173,10.0,15.0,82,0.00,,SKC,0.87,VWS V13.00,2013-03-24 17:18:00,
2013-03-24 12:23:00,58.4,52.6,29.55,South,172,7.0,15.0,81,0.00,,SKC,0.87,VWS V13.00,2013-03-24 17:23:00,
2013-03-24 12:28:00,58.7,52.9,29.55,SSE,168,8.0,15.0,81,0.00,,SKC,0.87,VWS V13.00,2013-03-24 17:28:00,
2013-03-24 12:33:00,58.9,53.1,29.54,SSW,199,5.0,9.0,81,0.00,,SKC,0.87,VWS V13.00,2013-03-24 17:33:00,
2013-03-24 12:38:00,59.1,54.0,29.54,SW,215,0.0,10.0,83,0.00,,SKC,0.87,VWS V13.00,2013-03-24 17:38:00,
2013-03-24 12:43:00,59.5,53.7,29.53,SSW,199,7.0,12.0,81,0.00,,SKC,0.87,VWS V13.00,2013-03-24 17:43:00,
2013-03-24 12:48:00,59.8,54.3,29.52,SSW,193,3.0,12.0,82,0.00,,SKC,0.87,VWS V13.00,2013-03-24 17:48:00,
2013-03-24 12:53:00,60.5,54.3,29.52,SSW,211,11.0,12.0,80,0.00,,SKC,0.87,VWS V13.00,2013-03-24 17:53:00,
2013-03-24 12:58:00,60.5,53.6,29.52,South,178,1.0,12.0,78,0.00,,SKC,0.87,VWS V13.00,2013-03-24 17:58:00,
2013-03-24 13:03:00,61.0,54.5,29.52,SE,144,7.0,10.0,79,0.00,,SKC,0.87,VWS V13.00,2013-03-24 18:03:00,
2013-03-24 13:08:00,60.8,54.3,29.52,South,184,7.0,13.0,79,0.00,,SKC,0.87,VWS V13.00,2013-03-24 18:08:00,
2013-03-24 13:13:00,61.1,54.2,29.52,South,178,8.0,13.0,78,0.00,,SKC,0.87,VWS V13.00,2013-03-24 18:13:00,
2013-03-24 13:18:00,60.7,54.5,29.51,South,170,7.0,13.0,80,0.00,,SKC,0.87,VWS V13.00,2013-03-24 18:18:00,
2013-03-24 13:23:00,61.3,54.7,29.51,South,185,5.0,13.0,79,0.00,,SKC,0.87,VWS V13.00,2013-03-24 18:23:00,
2013-03-24 13:28:00,61.1,53.8,29.51,SSW,211,10.0,15.0,77,0.00,,SKC,0.87,VWS V13.00,2013-03-24 18:28:00,
2013-03-24 13:33:00,60.2,53.7,29.51,SW,221,7.0,10.0,79,0.00,,SKC,0.87,VWS V13.00,2013-03-24 18:33:00,
2013-03-24 13:38:00,59.7,53.5,29.51,SSW,213,6.0,16.0,80,0.00,,SKC,0.87,VWS V13.00,2013-03-24 18:38:00,
2013-03-24 13:43:00,59.6,53.4,29.51,SSW,207,7.0,16.0,80,0.00,,SKC,0.87,VWS V13.00,2013-03-24 18:43:00,
2013-03-24 13:48:00,59.4,53.6,29.50,SW,227,6.0,16.0,81,0.00,,SKC,0.87,VWS V13.00,2013-03-24 18:48:00,
2013-03-24 13:53:00,59.4,53.9,29.50,SW,217,9.0,16.0,82,0.00,,SKC,0.87,VWS V13.00,2013-03-24 18:53:00,
2013-03-24 13:58:00,59.6,54.1,29.50,SSW,209,5.0,16.0,82,0.00,,SKC,0.87,VWS V13.00,2013-03-24 18:58:00,
2013-03-24 14:03:00,59.8,54.0,29.49,SSW,213,8.0,12.0,81,0.00,,SKC,0.87,VWS V13.00,2013-03-24 19:03:00,
2013-03-24 14:08:00,59.8,54.0,29.49,South,178,3.0,13.0,81,0.00,,SKC,0.87,VWS V13.00,2013-03-24 19:08:00,
2013-03-24 14:13:00,59.7,53.9,29.48,South,171,6.0,15.0,81,0.00,,SKC,0.87,VWS V13.00,2013-03-24 19:13:00,
2013-03-24 14:18:00,59.5,53.7,29.48,South,178,8.0,15.0,81,0.00,,SKC,0.87,VWS V13.00,2013-03-24 19:18:00,
2013-03-24 14:23:00,59.4,53.9,29.48,SSW,205,7.0,15.0,82,0.00,,SKC,0.87,VWS V13.00,2013-03-24 19:23:00,
2013-03-24 14:28:00,59.3,53.8,29.48,South,190,6.0,15.0,82,0.00,,SKC,0.87,VWS V13.00,2013-03-24 19:28:00,
2013-03-24 14:33:00,59.2,54.0,29.48,SSW,199,2.0,5.0,83,0.00,,SKC,0.87,VWS V13.00,2013-03-24 19:33:00,
2013-03-24 14:38:00,59.2,54.0,29.47,SW,229,5.0,9.0,83,0.00,,SKC,0.87,VWS V13.00,2013-03-24 19:38:00,
2013-03-24 14:43:00,59.2,54.0,29.47,SSW,207,5.0,11.0,83,0.00,,SKC,0.87,VWS V13.00,2013-03-24 19:43:00,
2013-03-24 14:48:00,59.2,54.0,29.46,SSW,194,7.0,11.0,83,0.00,,SKC,0.87,VWS V13.00,2013-03-24 19:48:00,
2013-03-24 14:53:00,59.2,54.0,29.46,SSW,204,2.0,11.0,83,0.00,,SKC,0.87,VWS V13.00,2013-03-24 19:53:00,
2013-03-24 14:58:00,59.1,54.0,29.46,SSW,209,5.0,11.0,83,0.00,,SKC,0.87,VWS V13.00,2013-03-24 19:58:00,
2013-03-24 15:03:00,59.0,54.5,29.46,SW,228,7.0,13.0,85,0.00,,SKC,0.87,VWS V13.00,2013-03-24 20:03:00,
2013-03-24 15:08:00,58.8,54.6,29.45,SSW,193,5.0,13.0,86,0.00,,SKC,0.87,VWS V13.00,2013-03-24 20:08:00,
2013-03-24 15:13:00,58.7,54.8,29.45,SW,218,5.0,13.0,87,0.00,,SKC,0.87,VWS V13.00,2013-03-24 20:13:00,
2013-03-24 15:18:00,58.7,54.8,29.45,SW,234,7.0,15.0,87,0.00,,SKC,0.87,VWS V13.00,2013-03-24 20:18:00,
2013-03-24 15:23:00,58.9,55.0,29.45,SW,235,15.0,15.0,87,0.00,,SKC,0.87,VWS V13.00,2013-03-24 20:23:00,
2013-03-24 15:28:00,59.1,54.9,29.45,West,260,5.0,23.0,86,0.00,,SKC,0.87,VWS V13.00,2013-03-24 20:28:00,
2013-03-24 15:33:00,59.3,55.1,29.45,West,264,15.0,16.0,86,0.00,,SKC,0.87,VWS V13.00,2013-03-24 20:33:00,
2013-03-24 15:38:00,59.6,55.1,29.45,SW,221,8.0,23.0,85,0.00,,SKC,0.87,VWS V13.00,2013-03-24 20:38:00,
2013-03-24 15:43:00,59.5,55.0,29.45,SW,221,24.0,28.0,85,0.00,,SKC,0.87,VWS V13.00,2013-03-24 20:43:00,
2013-03-24 15:48:00,58.9,55.0,29.47,West,279,9.0,28.0,87,0.00,,SKC,0.87,VWS V13.00,2013-03-24 20:48:00,
2013-03-24 15:53:00,57.4,53.6,29.48,WSW,253,22.0,32.0,87,0.02,,SKC,0.89,VWS V13.00,2013-03-24 20:53:00,
2013-03-24 15:58:00,55.7,51.9,29.49,WNW,293,18.0,37.0,87,0.03,,SKC,0.90,VWS V13.00,2013-03-24 20:58:00,
2013-03-24 16:03:00,54.4,50.6,29.51,West,262,13.0,26.0,87,0.03,,SKC,0.90,VWS V13.00,2013-03-24 21:03:00,
2013-03-24 16:08:00,53.9,50.4,29.51,West,270,26.0,28.0,88,0.03,,SKC,0.90,VWS V13.00,2013-03-24 21:08:00,
2013-03-24 16:13:00,53.5,48.8,29.51,WSW,256,19.0,32.0,84,0.03,,SKC,0.90,VWS V13.00,2013-03-24 21:13:00,
2013-03-24 16:18:00,53.3,48.6,29.52,West,281,14.0,32.0,84,0.03,,SKC,0.90,VWS V13.00,2013-03-24 21:18:00,
2013-03-24 16:23:00,53.0,48.0,29.52,West,276,18.0,32.0,83,0.03,,SKC,0.90,VWS V13.00,2013-03-24 21:23:00,
2013-03-24 16:28:00,52.9,47.9,29.52,WSW,250,22.0,32.0,83,0.03,,SKC,0.90,VWS V13.00,2013-03-24 21:28:00,
2013-03-24 16:33:00,53.2,47.9,29.52,WSW,252,14.0,29.0,82,0.03,,SKC,0.90,VWS V13.00,2013-03-24 21:33:00,
2013-03-24 16:38:00,53.1,46.8,29.53,West,274,16.0,32.0,79,0.03,,SKC,0.90,VWS V13.00,2013-03-24 21:38:00,
2013-03-24 16:43:00,53.4,47.1,29.54,WNW,290,19.0,32.0,79,0.03,,SKC,0.90,VWS V13.00,2013-03-24 21:43:00,
2013-03-24 16:48:00,53.3,46.6,29.54,WNW,302,18.0,32.0,78,0.03,,SKC,0.90,VWS V13.00,2013-03-24 21:48:00,
2013-03-24 16:53:00,53.2,46.2,29.54,WNW,290,16.0,32.0,77,0.03,,SKC,0.90,VWS V13.00,2013-03-24 21:53:00,
2013-03-24 16:58:00,52.9,45.9,29.54,West,267,20.0,32.0,77,0.03,,SKC,0.90,VWS V13.00,2013-03-24 21:58:00,
2013-03-24 17:03:00,53.4,45.7,29.53,West,271,14.0,24.0,75,0.00,,SKC,0.90,VWS V13.00,2013-03-24 22:03:00,
2013-03-24 17:08:00,53.5,46.1,29.54,WNW,294,8.0,27.0,76,0.00,,SKC,0.90,VWS V13.00,2013-03-24 22:08:00,
2013-03-24 17:13:00,53.1,46.1,29.54,WSW,252,7.0,27.0,77,0.00,,SKC,0.90,VWS V13.00,2013-03-24 22:13:00,
2013-03-24 17:18:00,53.9,45.8,29.54,WNW,301,14.0,27.0,74,0.00,,SKC,0.90,VWS V13.00,2013-03-24 22:18:00,
2013-03-24 17:23:00,53.5,45.1,29.54,WSW,257,16.0,27.0,73,0.00,,SKC,0.90,VWS V13.00,2013-03-24 22:23:00,
2013-03-24 17:28:00,53.6,45.5,29.54,WNW,290,8.0,27.0,74,0.00,,SKC,0.90,VWS V13.00,2013-03-24 22:28:00,
2013-03-24 17:33:00,53.6,45.2,29.54,WSW,252,7.0,12.0,73,0.00,,SKC,0.90,VWS V13.00,2013-03-24 22:33:00,
2013-03-24 17:38:00,53.5,44.7,29.54,West,277,10.0,23.0,72,0.00,,SKC,0.90,VWS V13.00,2013-03-24 22:38:00,
2013-03-24 17:43:00,53.1,44.3,29.55,West,269,15.0,24.0,72,0.00,,SKC,0.90,VWS V13.00,2013-03-24 22:43:00,
2013-03-24 17:48:00,53.0,44.2,29.54,West,267,12.0,24.0,72,0.00,,SKC,0.90,VWS V13.00,2013-03-24 22:48:00,
2013-03-24 17:53:00,52.9,43.8,29.54,West,269,19.0,24.0,71,0.00,,SKC,0.90,VWS V13.00,2013-03-24 22:53:00,
2013-03-24 17:58:00,52.9,44.1,29.55,NW,308,12.0,24.0,72,0.00,,SKC,0.90,VWS V13.00,2013-03-24 22:58:00,
2013-03-24 18:03:00,53.0,44.2,29.55,WNW,282,14.0,23.0,72,0.00,,SKC,0.90,VWS V13.00,2013-03-24 23:03:00,
2013-03-24 18:08:00,53.0,44.6,29.56,WNW,290,14.0,23.0,73,0.00,,SKC,0.90,VWS V13.00,2013-03-24 23:08:00,
2013-03-24 18:13:00,53.0,41.6,29.56,WNW,288,22.0,30.0,65,0.00,,SKC,0.90,VWS V13.00,2013-03-24 23:13:00,
2013-03-24 18:18:00,52.5,39.0,29.57,WNW,292,12.0,35.0,60,0.00,,SKC,0.90,VWS V13.00,2013-03-24 23:18:00,
2013-03-24 18:23:00,52.0,39.4,29.58,WSW,240,11.0,35.0,62,0.00,,SKC,0.90,VWS V13.00,2013-03-24 23:23:00,
2013-03-24 18:28:00,51.5,39.7,29.58,West,270,12.0,35.0,64,0.00,,SKC,0.90,VWS V13.00,2013-03-24 23:28:00,
2013-03-24 18:33:00,51.1,39.8,29.59,WNW,292,19.0,25.0,65,0.00,,SKC,0.90,VWS V13.00,2013-03-24 23:33:00,
2013-03-24 18:38:00,50.8,39.9,29.59,WNW,292,11.0,27.0,66,0.00,,SKC,0.90,VWS V13.00,2013-03-24 23:38:00,
2013-03-24 18:43:00,50.5,40.0,29.60,West,281,12.0,29.0,67,0.00,,SKC,0.90,VWS V13.00,2013-03-24 23:43:00,
2013-03-24 18:48:00,49.5,38.6,29.61,NW,325,26.0,31.0,66,0.00,,SKC,0.90,VWS V13.00,2013-03-24 23:48:00,
2013-03-24 18:53:00,48.6,38.5,29.62,WNW,288,16.0,31.0,68,0.00,,SKC,0.90,VWS V13.00,2013-03-24 23:53:00,
2013-03-24 18:58:00,47.9,37.5,29.63,WNW,295,31.0,34.0,67,0.00,,SKC,0.90,VWS V13.00,2013-03-24 23:58:00,
2013-03-24 19:03:00,47.3,36.2,29.64,WNW,291,16.0,20.0,65,0.00,,SKC,0.90,VWS V13.00,2013-03-25 00:03:00,
2013-03-24 19:08:00,46.7,34.8,29.64,WNW,284,30.0,35.0,63,0.00,,SKC,0.90,VWS V13.00,2013-03-25 00:08:00,
2013-03-24 19:13:00,46.2,35.1,29.65,West,261,15.0,35.0,65,0.00,,SKC,0.90,VWS V13.00,2013-03-25 00:13:00,
2013-03-24 19:18:00,46.0,35.7,29.66,WNW,289,13.0,35.0,67,0.00,,SKC,0.90,VWS V13.00,2013-03-25 00:18:00,
2013-03-24 19:23:00,45.5,34.0,29.66,WNW,300,18.0,35.0,64,0.00,,SKC,0.90,VWS V13.00,2013-03-25 00:23:00,
2013-03-24 19:28:00,45.0,33.6,29.67,West,269,28.0,35.0,64,0.00,,SKC,0.90,VWS V13.00,2013-03-25 00:28:00,
2013-03-24 19:33:00,44.6,34.0,29.67,WNW,296,7.0,15.0,66,0.00,,SKC,0.90,VWS V13.00,2013-03-25 00:33:00,
2013-03-24 19:38:00,44.2,32.8,29.67,NW,304,21.0,32.0,64,0.00,,SKC,0.90,VWS V13.00,2013-03-25 00:38:00,
2013-03-24 19:43:00,43.8,32.4,29.68,WNW,300,20.0,32.0,64,0.00,,SKC,0.90,VWS V13.00,2013-03-25 00:43:00,
2013-03-24 19:48:00,43.5,32.2,29.68,West,281,10.0,32.0,64,0.00,,SKC,0.90,VWS V13.00,2013-03-25 00:48:00,
2013-03-24 19:53:00,43.3,32.3,29.69,WNW,302,21.0,32.0,65,0.00,,SKC,0.90,VWS V13.00,2013-03-25 00:53:00,
2013-03-24 19:58:00,43.1,32.2,29.69,NW,310,15.0,32.0,65,0.00,,SKC,0.90,VWS V13.00,2013-03-25 00:58:00,
2013-03-24 20:03:00,42.9,32.3,29.70,NW,317,24.0,25.0,66,0.00,,SKC,0.90,VWS V13.00,2013-03-25 01:03:00,
2013-03-24 20:08:00,42.8,32.2,29.70,WNW,290,22.0,29.0,66,0.00,,SKC,0.90,VWS V13.00,2013-03-25 01:08:00,
2013-03-24 20:13:00,42.6,32.0,29.70,West,273,12.0,30.0,66,0.00,,SKC,0.90,VWS V13.00,2013-03-25 01:13:00,
2013-03-24 20:18:00,42.5,32.3,29.70,West,275,12.0,33.0,67,0.00,,SKC,0.90,VWS V13.00,2013-03-25 01:18:00,
2013-03-24 20:23:00,42.4,32.6,29.70,West,271,14.0,33.0,68,0.00,,SKC,0.90,VWS V13.00,2013-03-25 01:23:00,
2013-03-24 20:28:00,42.4,32.2,29.70,NW,313,15.0,33.0,67,0.00,,SKC,0.90,VWS V13.00,2013-03-25 01:28:00,
2013-03-24 20:33:00,42.3,32.9,29.71,NW,321,10.0,13.0,69,0.00,,SKC,0.90,VWS V13.00,2013-03-25 01:33:00,
2013-03-24 20:38:00,42.2,33.1,29.71,West,268,11.0,24.0,70,0.00,,SKC,0.90,VWS V13.00,2013-03-25 01:38:00,
2013-03-24 20:43:00,42.1,32.7,29.71,West,263,9.0,27.0,69,0.00,,SKC,0.90,VWS V13.00,2013-03-25 01:43:00,
2013-03-24 20:48:00,42.0,32.6,29.71,West,281,15.0,27.0,69,0.00,,SKC,0.90,VWS V13.00,2013-03-25 01:48:00,
2013-03-24 20:53:00,41.9,32.5,29.72,West,278,14.0,27.0,69,0.00,,SKC,0.90,VWS V13.00,2013-03-25 01:53:00,
2013-03-24 20:58:00,41.8,32.8,29.72,NW,321,14.0,27.0,70,0.00,,SKC,0.90,VWS V13.00,2013-03-25 01:58:00,
2013-03-24 21:03:00,41.8,32.4,29.72,WNW,292,8.0,21.0,69,0.00,,SKC,0.90,VWS V13.00,2013-03-25 02:03:00,
2013-03-24 21:08:00,41.7,31.9,29.72,WNW,300,20.0,34.0,68,0.00,,SKC,0.90,VWS V13.00,2013-03-25 02:08:00,
2013-03-24 21:13:00,41.6,32.2,29.73,WNW,292,19.0,34.0,69,0.00,,SKC,0.90,VWS V13.00,2013-03-25 02:13:00,
2013-03-24 21:18:00,41.5,32.1,29.73,WNW,290,21.0,34.0,69,0.00,,SKC,0.90,VWS V13.00,2013-03-25 02:18:00,
2013-03-24 21:23:00,41.5,32.5,29.73,West,279,7.0,34.0,70,0.00,,SKC,0.90,VWS V13.00,2013-03-25 02:23:00,
2013-03-24 21:28:00,41.4,32.4,29.73,NW,305,12.0,34.0,70,0.00,,SKC,0.90,VWS V13.00,2013-03-25 02:28:00,
2013-03-24 21:33:00,41.4,31.6,29.73,NW,310,15.0,25.0,68,0.00,,SKC,0.90,VWS V13.00,2013-03-25 02:33:00,
2013-03-24 21:38:00,41.3,32.3,29.73,WNW,286,6.0,26.0,70,0.00,,SKC,0.90,VWS V13.00,2013-03-25 02:38:00,
2013-03-24 21:43:00,41.4,31.6,29.73,WNW,286,13.0,26.0,68,0.00,,SKC,0.90,VWS V13.00,2013-03-25 02:43:00,
2013-03-24 21:48:00,41.3,31.5,29.73,West,269,9.0,27.0,68,0.00,,SKC,0.90,VWS V13.00,2013-03-25 02:48:00,
2013-03-24 21:53:00,41.3,31.5,29.73,WNW,295,18.0,27.0,68,0.00,,SKC,0.90,VWS V13.00,2013-03-25 02:53:00,
2013-03-24 21:58:00,41.3,31.5,29.73,West,268,9.0,27.0,68,0.00,,SKC,0.90,VWS V13.00,2013-03-25 02:58:00,
2013-03-24 22:03:00,41.3,31.5,29.73,West,278,13.0,20.0,68,0.00,,SKC,0.90,VWS V13.00,2013-03-25 03:03:00,
2013-03-24 22:08:00,41.2,31.8,29.74,WNW,288,14.0,24.0,69,0.00,,SKC,0.90,VWS V13.00,2013-03-25 03:08:00,
2013-03-24 22:13:00,41.1,31.4,29.74,NW,315,16.0,31.0,68,0.00,,SKC,0.90,VWS V13.00,2013-03-25 03:13:00,
2013-03-24 22:18:00,41.0,31.6,29.74,WSW,258,12.0,31.0,69,0.00,,SKC,0.90,VWS V13.00,2013-03-25 03:18:00,
2013-03-24 22:23:00,40.9,31.5,29.74,WNW,303,9.0,31.0,69,0.00,,SKC,0.90,VWS V13.00,2013-03-25 03:23:00,
2013-03-24 22:28:00,40.9,31.5,29.74,WNW,302,15.0,31.0,69,0.00,,SKC,0.90,VWS V13.00,2013-03-25 03:28:00,
2013-03-24 22:33:00,40.8,31.1,29.75,WNW,288,20.0,25.0,68,0.00,,SKC,0.90,VWS V13.00,2013-03-25 03:33:00,
2013-03-24 22:38:00,40.6,30.9,29.75,NW,308,26.0,26.0,68,0.00,,SKC,0.90,VWS V13.00,2013-03-25 03:38:00,
2013-03-24 22:43:00,40.5,30.8,29.75,NW,309,15.0,27.0,68,0.00,,SKC,0.90,VWS V13.00,2013-03-25 03:43:00,
2013-03-24 22:48:00,40.4,30.7,29.75,WNW,302,16.0,27.0,68,0.00,,SKC,0.90,VWS V13.00,2013-03-25 03:48:00,
2013-03-24 22:53:00,40.3,30.6,29.75,NW,319,16.0,28.0,68,0.00,,SKC,0.90,VWS V13.00,2013-03-25 03:53:00,
2013-03-24 22:58:00,40.2,30.9,29.75,WNW,292,23.0,28.0,69,0.00,,SKC,0.90,VWS V13.00,2013-03-25 03:58:00,
2013-03-24 23:00:00,40.2,30.5,29.75,NW,307,16.0,28.0,68,0.00,,SKC,0.90,VWS V13.00,2013-03-25 04:00:00,
2013-03-24 23:05:00,40.1,30.8,29.75,WNW,301,12.0,21.0,69,0.00,,SKC,0.90,VWS V13.00,2013-03-25 04:05:00,
2013-03-24 23:10:00,39.9,30.6,29.76,West,274,12.0,27.0,69,0.00,,SKC,0.90,VWS V13.00,2013-03-25 04:10:00,
2013-03-24 23:15:00,39.8,30.5,29.76,NW,313,15.0,27.0,69,0.00,,SKC,0.90,VWS V13.00,2013-03-25 04:15:00,
2013-03-24 23:20:00,39.7,30.0,29.76,WNW,298,12.0,27.0,68,0.00,,SKC,0.90,VWS V13.00,2013-03-25 04:20:00,
2013-03-24 23:26:00,39.5,30.2,29.76,NW,306,16.0,27.0,69,0.00,,SKC,0.90,VWS V13.00,2013-03-25 04:26:00,
2013-03-24 23:31:00,39.4,29.7,29.76,WNW,292,20.0,27.0,68,0.00,,SKC,0.90,VWS V13.00,2013-03-25 04:31:00,
2013-03-24 23:36:00,39.3,29.6,29.77,NW,315,13.0,23.0,68,0.00,,SKC,0.90,VWS V13.00,2013-03-25 04:36:00,
2013-03-24 23:41:00,39.2,29.5,29.77,NNW,336,16.0,23.0,68,0.00,,SKC,0.90,VWS V13.00,2013-03-25 04:41:00,
2013-03-24 23:47:00,39.2,29.5,29.77,WNW,300,19.0,25.0,68,0.00,,SKC,0.90,VWS V13.00,2013-03-25 04:47:00,
2013-03-24 23:52:00,39.1,29.5,29.77,WNW,297,19.0,25.0,68,0.00,,SKC,0.90,VWS V13.00,2013-03-25 04:52:00,
2013-03-24 23:57:00,39.0,29.4,29.77,NW,306,13.0,25.0,68,0.00,,SKC,0.90,VWS V13.00,2013-03-25 04:57:00,